Weather History for Minneapolis Crystal, MN

Change the Weather History Date:

Monday, June 3, 2013

  Actual Average Record
Temperature  
Mean Temperature 57 °F -  
Max Temperature 70 °F 70 °F 89 °F (2011)
Min Temperature 45 °F 49 °F 39 °F (1998)
Degree Days  
Heating Degree Days 8    
Growing Degree Days 7 (Base 50)    
Moisture  
Dew Point 42 °F    
Average Humidity 55    
Maximum Humidity 90    
Minimum Humidity 33    
Precipitation  
Precipitation 0.00 in - - ()
Sea Level Pressure  
Sea Level Pressure 30.03 in    
Wind  
Wind Speed 2 mph (East)    
Max Wind Speed 8 mph    
Max Gust Speed -    
Visibility 10 miles    
Events      
Averages and records for this station are not official NWS values.
T = Trace of Precipitation, MM = Missing Value Source: NWS Daily Summary

Daily Weather History Graph

Daily Weather History Graph

Search for Another Location

Airport:

Trip Planner

Search our weather history database for the weather conditions in past years. The results will help you decide how hot, cold, wet, or windy it might be!

Date:

Astronomy

Jun. 03, 2013 Rise Set
Actual Time 5:28 AM CDT 8:55 PM CDT
Civil Twilight 4:51 AM CDT 9:31 PM CDT
Nautical Twilight 4:03 AM CDT 10:20 PM CDT
Astronomical Twilight 3:02 AM CDT 11:21 PM CDT
Moon 2:38 AM CDT (6/3) 4:16 PM CDT (6/3)
Length of Visible Light 16h 39m
Length of Day
15h 26m
Waning Crescent, 22% of the Moon is Illuminated
Jun 3
Waning Crescent
Jun 8
New
Jun 16
First Quarter
Jun 23
Full
Jun 29
Last Quarter

Hourly Weather History & Observations

Time (CDT) Temp. Dew Point Humidity Pressure Visibility Wind Dir Wind Speed Gust Speed Precip Events Conditions
12:53 AM 50.0 °F 43.0 °F 77% 30.03 in 10.0 mi Calm Calm - N/A   Partly Cloudy
1:53 AM 50.0 °F 43.0 °F 77% 30.03 in 10.0 mi Calm Calm - N/A   Partly Cloudy
2:53 AM 48.9 °F 43.0 °F 80% 30.02 in 10.0 mi Calm Calm - N/A   Clear
3:53 AM 46.9 °F 42.1 °F 83% 30.01 in 10.0 mi Calm Calm - N/A   Clear
4:53 AM 45.0 °F 42.1 °F 90% 30.02 in 10.0 mi Calm Calm - N/A   Clear
5:53 AM 45.0 °F 42.1 °F 90% 30.03 in 10.0 mi Calm Calm - N/A   Clear
6:53 AM 51.1 °F 46.9 °F 86% 30.04 in 10.0 mi Calm Calm - N/A   Clear
7:53 AM 57.0 °F 44.1 °F 62% 30.05 in 10.0 mi Calm Calm - N/A   Clear
8:53 AM 62.1 °F 42.1 °F 48% 30.06 in 10.0 mi SW 5.8 mph - N/A   Clear
9:53 AM 64.0 °F 42.1 °F 45% 30.06 in 10.0 mi Calm Calm - N/A   Clear
10:53 AM 64.9 °F 37.0 °F 36% 30.05 in 10.0 mi SW 4.6 mph - N/A   Partly Cloudy
11:53 AM 66.9 °F 37.9 °F 34% 30.05 in 10.0 mi Variable 3.5 mph - N/A   Clear
12:53 PM 66.9 °F 39.0 °F 36% 30.04 in 10.0 mi Calm Calm - N/A   Clear
1:53 PM 69.1 °F 39.0 °F 33% 30.03 in 10.0 mi Calm Calm - N/A   Clear
2:53 PM 68.0 °F 39.9 °F 36% 30.01 in 10.0 mi ENE 4.6 mph - N/A   Clear
3:53 PM 66.9 °F 39.9 °F 37% 30.01 in 10.0 mi ENE 4.6 mph - N/A   Scattered Clouds
4:53 PM 66.9 °F 41.0 °F 39% 29.99 in 10.0 mi East 6.9 mph - N/A   Mostly Cloudy
5:53 PM 66.0 °F 41.0 °F 40% 29.98 in 10.0 mi East 8.1 mph - N/A   Overcast
6:53 PM 66.9 °F 43.0 °F 42% 29.99 in 10.0 mi ESE 6.9 mph - 0.00 in   Mostly Cloudy
7:53 PM 64.9 °F 42.1 °F 43% 29.99 in 10.0 mi SE 5.8 mph - N/A   Clear
8:53 PM 64.9 °F 43.0 °F 45% 30.02 in 10.0 mi East 3.5 mph - N/A   Overcast
9:53 PM 64.0 °F 43.0 °F 46% 30.03 in 10.0 mi East 3.5 mph - N/A   Overcast
10:53 PM 63.0 °F 45.0 °F 52% 30.04 in 10.0 mi East 3.5 mph - N/A   Overcast
11:53 PM 63.0 °F 45.0 °F 52% 30.04 in 10.0 mi East 4.6 mph - N/A   Overcast